Tracking 18843 objects as of 20-November-2017
HD Live streaming from Space Station
objects crossing your sky now

TURKSAT 1C

Track TURKSAT 1C now!
TURKSAT 1C is classified as:


NORAD ID: 23949
Int'l Code: 1996-040B
Perigee: 35,742.4 km
Apogee: 35,805.7 km
Inclination: 7.4 °
Period: 1,435.1 minutes
Semi major axis: 42145 km
RCS: 2.5119 m2 (large)
Launch date: July 9, 1996
Source: Turkey (TURK)
Launch site: FRENCH GUIANA (FRGUI)

16 Ku-band transponders; radio and TV communications to Turkey and neighboring countries.
aabbcc
Your satellite tracking list
Your tracking list is empty




NASA's NSSDC Master Catalog

Two Line Element Set (TLE):
1 23949U 96040B   17322.71912987 -.00000369 +00000-0 +00000-0 0  9994
2 23949 007.3829 050.0214 0007518 159.6134 220.4174 01.00342073078274
Source of the keplerian elements: AFSPC